EW1296 Weather Reports


time (UTC)temp
C
wind
direction
speed
KPH
gust
KPH
rain 1hr
cm
rain 24hr
cm
rain mn
cm
humidity
%
barometer
mb
20260507015517 18 225 3.2 9.7 0.00 0.05 0.05 82 1008.0
20260507015015 18 248 3.2 8.0 0.00 0.05 0.05 82 1007.9
20260507014516 18 225 1.6 9.7 0.00 0.05 0.05 81 1008.1
20260507014017 18 225 1.6 11.3 0.00 0.05 0.05 81 1008.0
20260507013516 18 0.0 4.8 0.00 0.05 0.05 81 1008.1
20260507013015 18 0.0 4.8 0.00 0.05 0.05 81 1008.2
20260507012516 18 225 3.2 9.7 0.00 0.05 0.05 81 1008.1
20260507012015 18 225 4.8 8.0 0.00 0.05 0.05 80 1008.0
20260507011516 18 225 1.6 6.4 0.00 0.05 0.05 80 1007.8
20260507011016 18 0.0 4.8 0.00 0.05 0.05 80 1007.8
20260507010516 18 225 3.2 4.8 0.00 0.05 0.05 79 1007.8
20260507010037 18 0.0 3.2 0.00 0.05 0.05 80 1007.8
20260507005516 18 225 1.6 4.8 0.00 0.05 0.05 80 1007.9
20260507005016 18 225 1.6 6.4 0.00 0.05 0.05 80 1007.9
20260507004536 19 225 1.6 8.0 0.00 0.05 0.05 79 1007.8
20260507004037 19 225 4.8 14.5 0.00 0.05 0.05 79 1007.7
20260507003535 19 225 3.2 11.3 0.00 0.05 0.05 79 1007.9
20260507003015 19 0.0 3.2 0.00 0.05 0.05 79 1007.8
20260507002515 19 225 1.6 8.0 0.00 0.05 0.05 79 1007.7
20260507002016 19 225 3.2 8.0 0.00 0.05 0.05 79 1007.7
20260507001537 19 248 4.8 8.0 0.00 0.05 0.05 79 1007.8
20260507001017 19 248 1.6 8.0 0.00 0.05 0.05 79 1007.9
20260507000555 19 203 4.8 12.9 0.00 0.05 0.05 79 1007.9
20260507000015 19 225 3.2 6.4 0.00 0.05 0.05 79 1007.9
20260506235535 19 225 4.8 12.9 0.00 0.05 0.05 79 1007.7
20260506235015 19 225 4.8 9.7 0.00 0.05 0.05 79 1007.7
20260506234535 19 203 3.2 9.7 0.00 0.05 0.05 79 1007.7
20260506234015 19 225 3.2 6.4 0.00 0.05 0.05 79 1007.7
20260506233516 19 225 3.2 6.4 0.00 0.05 0.05 79 1007.5
20260506233038 19 225 4.8 11.3 0.00 0.05 0.05 79 1007.5
20260506232515 19 203 1.6 8.0 0.00 0.05 0.05 79 1007.3
20260506232036 19 225 3.2 9.7 0.00 0.05 0.05 79 1007.5
20260506231516 19 225 4.8 9.7 0.00 0.05 0.05 79 1007.6
20260506231015 19 203 1.6 6.4 0.00 0.05 0.05 78 1007.5
20260506230515 19 248 3.2 8.0 0.00 0.05 0.05 78 1007.5
20260506230017 19 225 4.8 12.9 0.00 0.05 0.05 78 1007.5
20260506225658 19 225 4.8 9.7 0.00 0.05 0.05 78 1007.5
20260506225055 19 225 3.2 8.0 0.00 0.05 0.05 78 1007.4
20260506224515 20 225 4.8 11.3 0.00 0.05 0.05 78 1007.4
20260506224015 20 203 3.2 11.3 0.00 0.05 0.05 78 1007.3
20260506223517 19 225 4.8 12.9 0.00 0.05 0.05 78 1007.3
20260506223016 19 248 3.2 9.7 0.00 0.05 0.05 79 1007.2
20260506222515 19 225 6.4 14.5 0.00 0.05 0.05 79 1007.3
20260506222017 19 248 6.4 17.7 0.00 0.05 0.05 79 1007.3
20260506221515 19 203 8.0 19.3 0.00 0.05 0.05 80 1007.3
20260506221058 19 225 6.4 12.9 0.00 0.05 0.05 80 1007.3
20260506220515 19 225 6.4 12.9 0.00 0.05 0.05 80 1007.3
20260506220015 19 270 3.2 14.5 0.00 0.05 0.05 81 1007.3
20260506215535 18 248 3.2 6.4 0.00 0.05 0.05 81 1007.3
20260506215015 18 225 1.6 6.4 0.00 0.05 0.05 81 1007.2
20260506214515 18 203 4.8 9.7 0.00 0.05 0.05 81 1007.2
20260506214015 18 225 6.4 11.3 0.00 0.05 0.05 81 1007.2
20260506213515 18 203 4.8 11.3 0.00 0.05 0.05 81 1007.1
20260506213015 18 225 4.8 11.3 0.00 0.05 0.05 81 1007.0
20260506212517 18 225 4.8 12.9 0.00 0.05 0.05 81 1007.0
20260506212019 18 225 6.4 12.9 0.00 0.05 0.05 81 1007.0
20260506211517 18 225 6.4 16.1 0.00 0.05 0.05 81 1006.9
20260506211018 18 248 8.0 19.3 0.00 0.05 0.05 81 1006.9
20260506210515 18 225 6.4 16.1 0.00 0.05 0.05 81 1006.8
20260506210018 18 225 6.4 14.5 0.00 0.05 0.05 82 1006.7
20260506205517 18 225 8.0 17.7 0.00 0.05 0.05 81 1006.6
20260506205019 18 248 6.4 12.9 0.00 0.05 0.05 82 1006.6
20260506204517 18 225 8.0 17.7 0.00 0.05 0.05 82 1006.6
20260506204018 18 225 9.7 17.7 0.00 0.05 0.05 82 1006.7
20260506203517 18 203 6.4 17.7 0.00 0.05 0.05 82 1006.6
20260506203017 18 203 6.4 12.9 0.00 0.05 0.05 82 1006.7
20260506202518 18 203 6.4 16.1 0.00 0.05 0.05 81 1006.7
20260506202017 18 225 8.0 19.3 0.00 0.05 0.05 81 1006.8
20260506201519 18 225 8.0 19.3 0.00 0.05 0.05 81 1006.9
20260506201017 18 225 6.4 20.9 0.00 0.05 0.05 81 1007.0
20260506200518 18 225 9.7 22.5 0.00 0.05 0.05 81 1007.1
20260506200015 18 225 12.9 29.0 0.00 0.05 0.05 81 1007.1
20260506195517 18 225 8.0 16.1 0.00 0.05 0.05 82 1007.2
20260506195017 18 225 9.7 25.7 0.00 0.05 0.05 82 1007.2
20260506194538 18 225 8.0 24.1 0.00 0.05 0.05 82 1007.2
20260506194017 18 225 6.4 14.5 0.00 0.05 0.05 83 1007.2
20260506193517 18 225 9.7 17.7 0.00 0.05 0.05 82 1007.3
20260506193018 18 248 8.0 17.7 0.00 0.05 0.05 82 1007.3
20260506192517 18 225 12.9 27.4 0.00 0.05 0.05 82 1007.4
20260506192017 18 225 11.3 24.1 0.00 0.05 0.05 82 1007.4
20260506191517 18 248 12.9 25.7 0.00 0.05 0.05 83 1007.5
20260506191017 18 248 11.3 25.7 0.00 0.05 0.05 83 1007.4
20260506190517 18 225 9.7 22.5 0.00 0.05 0.05 84 1007.4
20260506190018 17 225 9.7 22.5 0.00 0.05 0.05 84 1007.5
20260506185515 17 225 4.8 12.9 0.00 0.05 0.05 83 1007.6
20260506185037 17 225 6.4 14.5 0.00 0.05 0.05 82 1007.6
20260506184517 17 225 3.2 11.3 0.00 0.05 0.05 82 1007.6
20260506184017 17 225 3.2 6.4 0.00 0.05 0.05 81 1007.6
20260506183517 17 0.0 6.4 0.00 0.05 0.05 80 1007.5
20260506183017 17 113 1.6 4.8 0.00 0.05 0.05 80 1007.4
20260506182517 17 113 4.8 11.3 0.00 0.05 0.05 79 1007.6
20260506182017 17 135 3.2 9.7 0.03 0.05 0.05 78 1007.8
20260506181518 17 135 3.2 11.3 0.03 0.05 0.05 78 1007.8
20260506181017 18 135 3.2 9.7 0.03 0.05 0.05 78 1008.0
20260506180518 18 113 3.2 9.7 0.03 0.05 0.05 78 1007.9
20260506180017 18 158 1.6 6.4 0.03 0.05 0.05 78 1007.8
20260506175537 18 135 3.2 11.3 0.03 0.05 0.05 77 1007.8
20260506175017 19 135 6.4 16.1 0.03 0.05 0.05 76 1007.8
20260506174517 20 135 3.2 8.0 0.03 0.05 0.05 79 1007.8
20260506174017 20 0.0 4.8 0.03 0.05 0.05 79 1007.9
20260506173537 19 0.0 3.2 0.03 0.05 0.05 79 1007.9
20260506173017 19 225 3.2 11.3 0.05 0.05 0.05 79 1007.8
20260506172518 19 225 6.4 14.5 0.05 0.05 0.05 78 1008.0
20260506172039 19 225 6.4 16.1 0.03 0.03 0.03 78 1008.0
20260506171537 19 225 6.4 14.5 0.03 0.03 0.03 78 1008.1
20260506171017 19 225 9.7 17.7 0.03 0.03 0.03 77 1008.5
20260506170518 19 225 9.7 20.9 0.03 0.03 0.03 77 1008.6
20260506170017 19 225 8.0 22.5 0.03 0.03 0.03 78 1008.7
20260506165517 19 225 8.0 19.3 0.03 0.03 0.03 77 1009.0
20260506165017 19 225 11.3 22.5 0.03 0.03 0.03 76 1009.1
20260506164517 19 225 9.7 17.7 0.03 0.03 0.03 76 1009.0
20260506164017 19 225 11.3 19.3 0.03 0.03 0.03 74 1008.9
20260506163518 19 203 9.7 22.5 0.03 0.03 0.03 73 1009.0
20260506163017 20 225 9.7 19.3 0.00 0.00 0.00 72 1009.2
20260506162518 20 225 9.7 19.3 0.00 0.00 0.00 70 1009.1
20260506162038 20 225 12.9 24.1 0.00 0.00 0.00 69 1009.2
20260506161517 21 225 11.3 20.9 0.00 0.00 0.00 66 1009.4
20260506161017 21 225 9.7 20.9 0.00 0.00 0.00 63 1009.5
20260506160518 21 225 11.3 25.7 0.00 0.00 0.00 61 1009.3
20260506160017 22 225 12.9 27.4 0.00 0.00 0.00 60 1009.4
20260506155517 22 225 9.7 24.1 0.00 0.00 0.00 59 1009.4
20260506155018 22 225 9.7 25.7 0.00 0.00 0.00 59 1009.4
20260506154517 22 248 12.9 24.1 0.00 0.00 0.00 60 1009.3
20260506154017 21 225 11.3 27.4 0.00 0.00 0.00 61 1009.3
20260506153517 21 248 14.5 32.2 0.00 0.00 0.00 61 1009.3
20260506153017 21 225 12.9 29.0 0.00 0.00 0.00 61 1009.2
20260506152517 21 248 16.1 25.7 0.00 0.00 0.00 61 1009.4
20260506152017 21 225 14.5 27.4 0.00 0.00 0.00 61 1009.5
20260506151517 21 225 14.5 24.1 0.00 0.00 0.00 61 1009.6
20260506151017 22 225 12.9 30.6 0.00 0.00 0.00 61 1009.6
20260506150516 22 225 14.5 30.6 0.00 0.00 0.00 61 1009.6
20260506150017 22 225 8.0 24.1 0.00 0.00 0.00 61 1009.6
20260506145516 22 225 4.8 17.7 0.00 0.00 0.00 62 1009.6
20260506145018 22 225 3.2 14.5 0.00 0.00 0.00 63 1009.7
20260506144517 22 225 3.2 12.9 0.00 0.00 0.00 63 1009.6
20260506144016 21 203 1.6 8.0 0.00 0.00 0.00 65 1009.6
20260506143517 21 203 1.6 6.4 0.00 0.00 0.00 65 1009.5
20260506143017 21 225 4.8 11.3 0.00 0.00 0.00 66 1009.5
20260506142558 21 203 3.2 9.7 0.00 0.00 0.00 65 1009.5
20260506142018 21 203 1.6 4.8 0.00 0.00 0.00 65 1009.5
20260506141518 21 248 3.2 12.9 0.00 0.00 0.00 65 1009.5
20260506141017 21 225 4.8 11.3 0.00 0.00 0.00 65 1009.5
20260506140517 21 135 1.6 3.2 0.00 0.00 0.00 65 1009.6
20260506140017 21 180 1.6 6.4 0.00 0.00 0.00 65 1009.6
20260506135517 21 158 3.2 12.9 0.00 0.00 0.00 66 1009.7
20260506135017 21 203 1.6 8.0 0.00 0.00 0.00 66 1009.7
20260506134538 21 225 3.2 11.3 0.00 0.00 0.00 66 1009.7
20260506134017 21 225 3.2 14.5 0.00 0.00 0.00 66 1009.7
20260506133517 20 180 3.2 9.7 0.00 0.00 0.00 66 1009.8
20260506133017 20 203 1.6 11.3 0.00 0.00 0.00 67 1009.8
20260506132516 20 158 3.2 9.7 0.00 0.00 0.00 68 1010.0
20260506132017 20 158 1.6 6.4 0.00 0.00 0.00 68 1010.0
20260506131517 20 180 3.2 11.3 0.00 0.00 0.00 69 1009.9
20260506131016 20 203 3.2 16.1 0.00 0.00 0.00 70 1009.8
20260506130536 20 225 9.7 17.7 0.00 0.00 0.00 69 1009.8
20260506130016 20 225 6.4 19.3 0.00 0.00 0.00 70 1009.7
20260506125516 19 225 11.3 24.1 0.00 0.00 0.00 71 1009.7
20260506125016 19 225 6.4 16.1 0.00 0.00 0.00 72 1009.7
20260506124538 19 225 6.4 19.3 0.00 0.00 0.00 72 1009.7
20260506124017 18 203 6.4 16.1 0.00 0.00 0.00 72 1009.7
20260506123516 18 225 6.4 16.1 0.00 0.00 0.00 72 1009.8
20260506123038 18 225 4.8 12.9 0.00 0.00 0.00 72 1009.9
20260506122617 19 225 3.2 14.5 0.00 0.00 0.00 72 1009.9
20260506122018 19 225 4.8 14.5 0.00 0.00 0.00 71 1009.8
20260506121517 19 203 4.8 11.3 0.00 0.00 0.00 71 1009.8
20260506121016 19 225 4.8 11.3 0.00 0.00 0.00 72 1010.0
20260506120536 19 180 3.2 14.5 0.00 0.00 0.00 73 1010.1
20260506120018 18 225 6.4 17.7 0.00 0.00 0.00 74 1010.1
20260506115516 18 225 6.4 24.1 0.00 0.00 0.00 74 1010.1
20260506115018 18 225 8.0 19.3 0.00 0.00 0.00 76 1010.1
20260506114536 18 248 4.8 14.5 0.00 0.00 0.00 77 1010.2
20260506114038 18 225 8.0 20.9 0.00 0.00 0.00 77 1010.2
20260506113517 18 225 6.4 17.7 0.00 0.00 0.00 77 1010.1
20260506113016 17 225 4.8 14.5 0.00 0.00 0.00 78 1010.2
20260506112016 17 203 6.4 19.3 0.00 0.00 0.00 79 1010.1
20260506111518 17 225 6.4 19.3 0.00 0.00 0.00 79 1010.1
20260506111017 17 225 6.4 20.9 0.00 0.00 0.00 80 1010.0
20260506110536 17 203 4.8 17.7 0.00 0.00 0.00 81 1010.0
20260506110037 17 225 6.4 19.3 0.00 0.00 0.00 81 1010.0
20260506105516 17 225 6.4 16.1 0.00 0.00 0.00 81 1010.0
20260506105016 17 225 4.8 14.5 0.00 0.00 0.00 82 1010.0
20260506104517 16 203 3.2 12.9 0.00 0.00 0.00 82 1010.1
20260506104016 16 225 3.2 12.9 0.00 0.00 0.00 82 1010.0
20260506103516 16 203 3.2 14.5 0.00 0.00 0.00 83 1009.9
20260506103037 16 203 6.4 16.1 0.00 0.00 0.00 83 1009.9
20260506102518 16 225 4.8 17.7 0.00 0.00 0.00 83 1010.0
20260506102016 16 203 6.4 19.3 0.00 0.00 0.00 83 1009.9
20260506101518 16 203 3.2 11.3 0.00 0.00 0.00 83 1009.9
20260506101016 16 203 4.8 19.3 0.00 0.00 0.00 83 1009.8
20260506100537 16 225 4.8 16.1 0.00 0.00 0.00 84 1009.9
20260506100017 16 225 4.8 16.1 0.00 0.00 0.00 84 1009.9
20260506095517 16 225 4.8 12.9 0.00 0.00 0.00 84 1009.8
20260506095016 16 203 4.8 14.5 0.00 0.00 0.00 84 1009.8
20260506094517 16 180 4.8 11.3 0.00 0.00 0.00 84 1009.7
20260506094057 16 203 4.8 20.9 0.00 0.00 0.00 84 1009.7
20260506093516 16 180 3.2 14.5 0.00 0.00 0.00 84 1009.7
20260506093016 16 180 3.2 14.5 0.00 0.00 0.00 84 1009.8
20260506092516 16 203 3.2 11.3 0.00 0.00 0.00 83 1009.8
20260506092036 16 180 1.6 8.0 0.00 0.00 0.00 83 1009.8
20260506091516 16 203 1.6 12.9 0.00 0.00 0.00 83 1009.9
20260506091017 16 158 3.2 12.9 0.00 0.00 0.00 83 1009.8
20260506090517 16 203 1.6 8.0 0.00 0.00 0.00 83 1010.0
20260506090038 16 225 3.2 11.3 0.00 0.00 0.00 83 1010.0
20260506085516 16 203 3.2 11.3 0.00 0.00 0.00 83 1010.0
20260506085016 16 203 3.2 14.5 0.00 0.00 0.00 83 1010.0
20260506084517 16 225 1.6 11.3 0.00 0.00 0.00 83 1010.0
20260506084016 16 203 3.2 8.0 0.00 0.00 0.00 83 1010.0
20260506083516 16 203 1.6 11.3 0.00 0.00 0.00 83 1009.9
20260506083058 16 158 1.6 9.7 0.00 0.00 0.00 83 1010.0
20260506082516 16 203 1.6 6.4 0.00 0.00 0.00 82 1010.0
20260506082016 16 180 1.6 6.4 0.00 0.00 0.00 82 1010.2
20260506081516 16 0.0 3.2 0.00 0.00 0.00 82 1010.1
20260506081017 16 203 1.6 4.8 0.00 0.00 0.00 82 1010.1
20260506080516 16 180 1.6 8.0 0.00 0.00 0.00 82 1010.1
20260506073518 16 180 1.6 6.4 0.00 0.00 0.00 81 1010.2
20260506073016 16 180 1.6 8.0 0.00 0.00 0.00 80 1010.2
20260506072516 16 203 1.6 8.0 0.00 0.00 0.00 80 1010.1
20260506072016 17 180 3.2 9.7 0.00 0.00 0.00 80 1010.2
20260506071516 17 225 1.6 4.8 0.00 0.00 0.00 79 1010.3
20260506071016 17 203 3.2 12.9 0.00 0.00 0.00 79 1010.3
20260506070517 17 180 1.6 9.7 0.00 0.00 0.00 79 1010.4
20260506062517 17 0.0 3.2 0.00 0.00 0.00 76 1010.3
20260506062016 17 180 1.6 6.4 0.00 0.00 0.00 76 1010.3
20260506061516 17 203 1.6 6.4 0.00 0.00 0.00 75 1010.2
20260506061016 17 158 1.6 8.0 0.00 0.00 0.00 75 1010.2
20260506060516 17 0.0 3.2 0.00 0.00 0.00 74 1010.2
20260506051016 18 180 3.2 14.5 0.00 0.00 0.00 71 1010.7
20260506050537 18 203 3.2 11.3 0.00 0.00 0.00 71 1010.7
20260506045016 18 180 3.2 14.5 0.00 0.00 0.00 70 1010.7
20260506044516 18 225 4.8 14.5 0.00 0.00 0.00 70 1010.8
20260506044016 18 225 6.4 20.9 0.00 0.00 0.00 69 1010.8
20260506043516 18 158 3.2 11.3 0.00 0.00 0.00 69 1010.8
20260506043016 19 180 3.2 11.3 0.00 0.00 0.00 68 1010.7
20260506042516 19 203 6.4 20.9 0.00 0.00 0.00 68 1010.7
20260506042017 19 225 6.4 14.5 0.00 0.00 0.00 68 1010.7
20260506041516 19 225 4.8 14.5 0.00 0.00 0.00 67 1010.7
20260506041016 19 225 6.4 20.9 0.00 0.00 0.00 67 1010.6
20260506040516 19 225 6.4 17.7 0.00 0.00 0.00 67 1010.7
20260506040016 19 225 8.0 27.4 0.00 0.00 0.00 67 1010.6
20260506035516 19 225 8.0 24.1 0.00 0.00 0.00 67 1010.6
20260506035017 19 225 9.7 19.3 0.00 0.00 0.00 66 1010.7
20260506034556 20 225 11.3 20.9 0.00 0.00 0.00 66 1010.8
20260506034016 20 225 11.3 20.9 0.00 0.00 0.00 66 1010.8
20260506033516 20 225 9.7 19.3 0.00 0.00 0.00 65 1010.6
20260506033016 20 225 11.3 25.7 0.00 0.00 0.00 65 1010.6
20260506032516 20 225 12.9 27.4 0.00 0.00 0.00 64 1010.7
20260506032016 20 225 11.3 27.4 0.00 0.00 0.00 64 1010.6
20260506031516 20 225 9.7 20.9 0.00 0.00 0.00 64 1010.5
20260506031017 20 225 12.9 33.8 0.00 0.00 0.00 64 1010.5
20260506030557 20 225 4.8 16.1 0.00 0.00 0.00 64 1010.5
20260506030017 20 225 6.4 16.1 0.00 0.00 0.00 64 1010.6
20260506025536 20 225 9.7 19.3 0.00 0.00 0.00 64 1010.5
20260506025016 19 248 9.7 22.5 0.00 0.00 0.00 64 1010.5
20260506024516 19 225 6.4 19.3 0.00 0.00 0.00 64 1010.5
20260506024017 19 225 6.4 17.7 0.00 0.00 0.00 64 1010.5
20260506023516 19 225 6.4 20.9 0.00 0.00 0.00 65 1010.5
20260506023016 19 225 6.4 17.7 0.00 0.00 0.00 65 1010.6
20260506022517 19 203 4.8 14.5 0.00 0.00 0.00 65 1010.6
20260506022017 19 225 6.4 16.1 0.00 0.00 0.00 65 1010.6
20260506021516 19 203 8.0 19.3 0.00 0.00 0.00 65 1010.6
20260506021036 19 203 6.4 19.3 0.00 0.00 0.00 65 1010.5
20260506020558 19 225 3.2 9.7 0.00 0.00 0.00 65 1010.5
20260506020017 19 180 3.2 11.3 0.00 0.00 0.00 64 1010.5